Date String (YYYY-MM-DD hh:mm:ss) UTC,Instrument flags,Ambient pressure (hPa),Sample flow (lpm),Bypass flow (lpm),Sample temperature (°C),Ambient temperature (°C),ASC tube jacket temperature (°C),LED temperature (°C),Box temperature (°C),Sample RH (%),Span deviation,Mass concentration (μg/m³),Mass concentration (μg/m³),Mass concentration (μg/m³)
DateTimeUTC,F1_M11,P_M11,Q1_M11,Q2_M11,T1_M11,T2_M11,T3_M11,T4_M11,T5_M11,U1_M11,ZSPAN_M11,X2_M11,X0_M11,X1_M11
2021-11-01 09:00:00,,0828.4,5.01,0.00,24.7,23.8,00.0,33.7,26.6,19.6,0000.0,0005.70,0007.90,0005.41
2021-11-01 09:01:00,,0828.4,5.00,0.00,24.7,23.8,00.0,33.7,26.6,19.6,0000.0,0005.75,0007.95,0005.44
2021-11-01 09:02:00,,0828.5,5.01,0.00,24.7,23.8,00.0,33.7,26.6,19.6,0000.0,0005.80,0008.08,0005.47
2021-11-01 09:03:00,,0828.5,5.00,0.00,24.7,23.9,00.0,33.7,26.6,19.6,0000.0,0005.86,0008.15,0005.51
2021-11-01 09:04:00,,0828.3,5.00,0.00,24.7,23.9,00.0,33.7,26.6,19.6,0000.0,0005.93,0008.37,0005.55
2021-11-01 09:05:00,,0828.3,5.00,0.00,24.7,23.8,00.0,33.7,26.6,19.6,0000.0,0006.00,0008.73,0005.59
2021-11-01 09:06:00,,0828.3,5.01,0.00,24.7,23.8,00.0,33.7,26.6,19.6,0000.0,0006.02,0008.72,0005.62
2021-11-01 09:07:00,,0828.4,4.99,0.00,24.7,23.9,00.0,33.7,26.6,19.6,0000.0,0006.04,0008.73,0005.64
2021-11-01 09:08:00,,0828.5,5.00,0.00,24.7,23.9,00.0,33.7,26.6,19.6,0000.0,0006.05,0008.66,0005.66
2021-11-01 09:09:00,,0828.5,5.01,0.00,24.7,23.8,00.0,33.7,26.6,19.6,0000.0,0006.06,0009.13,0005.69
2021-11-01 09:10:00,,0828.5,4.98,0.00,24.7,23.8,00.0,33.7,26.6,19.6,0000.0,0006.07,0009.13,0005.70
2021-11-01 09:11:00,,0828.7,5.00,0.00,24.7,23.8,00.0,33.7,26.6,19.6,0000.0,0006.06,0009.11,0005.70
2021-11-01 09:12:00,,0828.5,5.01,0.00,24.7,23.8,00.0,33.7,26.6,19.6,0000.0,0006.06,0009.11,0005.69
2021-11-01 09:13:00,,0828.5,5.00,0.00,24.7,23.8,00.0,33.7,26.6,19.6,0000.0,0006.05,0008.99,0005.70
2021-11-01 09:14:00,,0828.5,4.99,0.00,24.7,23.9,00.0,33.7,26.6,19.7,0000.0,0006.03,0008.93,0005.71
2021-11-01 09:15:00,,0828.5,5.00,0.00,24.7,23.9,00.0,33.7,26.6,19.6,0000.0,0006.04,0008.91,0005.73
2021-11-01 09:16:00,,0828.3,4.99,0.00,24.7,23.9,00.0,33.7,26.6,19.6,0000.0,0006.04,0008.69,0005.74
2021-11-01 09:17:00,,0828.3,5.00,0.00,24.7,23.9,00.0,33.7,26.6,19.6,0000.0,0006.10,0009.05,0005.77
2021-11-01 09:18:00,,0828.3,5.00,0.00,24.7,23.9,00.0,33.7,26.6,19.6,0000.0,0006.14,0009.62,0005.80
2021-11-01 09:19:00,,0828.3,5.01,0.00,24.7,23.9,00.0,33.7,26.6,19.6,0000.0,0006.17,0009.60,0005.83
2021-11-01 09:20:00,,0828.4,4.99,0.00,24.7,23.9,00.0,33.8,26.6,19.6,0000.0,0006.19,0009.60,0005.85
2021-11-01 09:21:00,,0828.4,5.02,0.00,24.7,23.9,00.0,33.7,26.6,19.6,0000.0,0006.22,0010.07,0005.87
2021-11-01 09:22:00,,0828.4,4.99,0.00,24.7,23.9,00.0,33.7,26.6,19.6,0000.0,0006.24,0010.29,0005.91
2021-11-01 09:23:00,,0828.5,5.00,0.00,24.8,23.9,00.0,33.8,26.6,19.6,0000.0,0006.31,0010.45,0005.96
2021-11-01 09:24:00,,0828.4,5.00,0.00,24.8,23.9,00.0,33.8,26.6,19.5,0000.0,0006.39,0010.57,0006.01
2021-11-01 09:25:00,,0828.3,5.00,0.00,24.8,23.9,00.0,33.8,26.6,19.5,0000.0,0006.42,0010.66,0006.03
2021-11-01 09:26:00,,0828.3,5.01,0.00,24.8,23.9,00.0,33.8,26.6,19.5,0000.0,0006.46,0010.57,0006.05
2021-11-01 09:27:00,,0828.3,5.00,0.00,24.8,23.9,00.0,33.8,26.6,19.6,0000.0,0006.48,0010.50,0006.08
2021-11-01 09:28:00,,0828.3,5.00,0.00,24.8,23.9,00.0,33.8,26.6,19.6,0000.0,0006.47,0010.19,0006.10
2021-11-01 09:29:00,,0828.2,5.00,0.00,24.8,23.9,00.0,33.8,26.6,19.5,0000.0,0006.51,0009.77,0006.10
2021-11-01 09:30:00,,0828.2,5.01,0.00,24.8,23.9,00.0,33.8,26.6,19.5,0000.0,0006.56,0009.89,0006.12
2021-11-01 09:31:00,,0828.2,5.00,0.00,24.8,23.9,00.0,33.8,26.6,19.5,0000.0,0006.60,0009.43,0006.15
2021-11-01 09:32:00,,0828.4,5.00,0.00,24.8,23.9,00.0,33.8,26.6,19.5,0000.0,0006.61,0009.00,0006.16
2021-11-01 09:33:00,,0828.4,5.01,0.00,24.8,23.9,00.0,33.8,26.6,19.5,0000.0,0006.65,0008.95,0006.17
2021-11-01 09:34:00,,0828.4,4.99,0.00,24.8,23.9,00.0,33.8,26.6,19.5,0000.0,0006.64,0009.13,0006.16
2021-11-01 09:35:00,,0828.4,5.01,0.00,24.8,23.9,00.0,33.8,26.6,19.5,0000.0,0006.63,0009.12,0006.16
2021-11-01 09:36:00,,0828.4,4.99,0.00,24.8,23.9,00.0,33.8,26.6,19.5,0000.0,0006.64,0009.61,0006.18
2021-11-01 09:37:00,,0828.4,5.01,0.00,24.8,23.9,00.0,33.8,26.6,19.5,0000.0,0006.63,0010.43,0006.19
2021-11-01 09:38:00,,0828.5,4.99,0.00,24.8,23.9,00.0,33.8,26.6,19.5,0000.0,0006.65,0010.79,0006.20
2021-11-01 09:39:00,,0828.5,5.00,0.00,24.8,23.9,00.0,33.8,26.6,19.5,0000.0,0006.70,0011.26,0006.23
2021-11-01 09:40:00,,0828.8,5.00,0.00,24.8,23.9,00.0,33.8,26.6,19.5,0000.0,0006.71,0012.18,0006.25
2021-11-01 09:41:00,,0828.9,5.01,0.00,24.8,23.9,00.0,33.8,26.6,19.5,0000.0,0006.72,0012.44,0006.27
2021-11-01 09:42:00,,0829.1,5.00,0.00,24.8,23.9,00.0,33.8,26.6,19.5,0000.0,0006.71,0012.45,0006.27
2021-11-01 09:43:00,,0828.9,4.99,0.00,24.8,23.9,00.0,33.8,26.6,19.5,0000.0,0006.76,0012.60,0006.31
2021-11-01 09:44:00,,0828.8,5.01,0.00,24.8,23.9,00.0,33.8,26.6,19.5,0000.0,0006.79,0012.61,0006.34
2021-11-01 09:45:00,,0828.9,5.01,0.00,24.8,23.8,00.0,33.8,26.6,19.5,0000.0,0006.81,0012.21,0006.37
2021-11-01 09:46:00,,0828.9,5.00,0.00,24.8,23.9,00.0,33.8,26.6,19.6,0000.0,0006.82,0012.21,0006.39
2021-11-01 09:47:00,,0828.7,5.00,0.00,24.8,23.9,00.0,33.8,26.6,19.6,0000.0,0006.85,0012.08,0006.41
2021-11-01 09:48:00,,0828.7,5.00,0.00,24.8,23.9,00.0,33.8,26.6,19.6,0000.0,0006.89,0011.12,0006.44
2021-11-01 09:49:00,,0828.7,4.99,0.00,24.8,23.9,00.0,33.8,26.6,19.6,0000.0,0006.94,0010.97,0006.47
2021-11-01 09:50:00,,0829.0,5.01,0.00,24.8,23.9,00.0,33.8,26.6,19.6,0000.0,0006.93,0010.56,0006.47
2021-11-01 09:51:00,,0829.1,5.00,0.00,24.8,23.9,00.0,33.8,26.6,19.6,0000.0,0006.92,0009.85,0006.48
2021-11-01 09:52:00,,0828.7,5.01,0.00,24.8,23.9,00.0,33.8,26.6,19.6,0000.0,0006.91,0009.21,0006.49
2021-11-01 09:53:00,,0829.1,5.00,0.00,24.8,23.9,00.0,33.8,26.6,19.6,0000.0,0006.92,0009.32,0006.48
2021-11-01 09:54:00,,0828.8,5.00,0.00,24.8,23.9,00.0,33.8,26.6,19.6,0000.0,0006.97,0009.32,0006.48
2021-11-01 09:55:00,,0828.5,5.00,0.00,24.8,23.9,00.0,33.8,26.6,19.7,0000.0,0006.98,0009.96,0006.49
2021-11-01 09:56:00,,0828.5,4.99,0.00,24.8,23.9,00.0,33.8,26.6,19.7,0000.0,0007.00,0010.42,0006.51
2021-11-01 09:57:00,,0828.9,5.00,0.00,24.8,23.9,00.0,33.8,26.6,19.7,0000.0,0007.01,0010.96,0006.53
2021-11-01 09:58:00,,0829.0,4.99,0.00,24.8,23.9,00.0,33.8,26.6,19.7,0000.0,0007.01,0011.18,0006.54
2021-11-01 09:59:00,,0829.1,5.01,0.00,24.8,23.9,00.0,33.8,26.6,19.7,0000.0,0007.00,0011.53,0006.54
